Wind_Speed
29 30 30 31 30 29 28 28 27 27 27 28 28 28 28 27 27 27 26 25 25 23 23 24 24 22 21 21 21 20 20 20 20 20 19 19 20 19 18 18 18 18 18 18 17 16 15 14 13 12 11 10 9 8 8 8 8 8 8 7 7 7 7 7 7 7 8 10 12 12 14 16 17 18 19 20 21 23 24 25 27 28 29 30 31
28 28 29 30 29 29 29 29 28 27 27 28 28 28 28 28 28 28 27 26 25 23 22 24 24 23 22 22 22 21 21 21 21 21 20 20 20 21 20 19 19 19 19 19 19 19 18 17 16 15 14 13 12 11 11 10 10 10 10 10 10 10 10 9 9 9 9 11 12 12 14 15 16 18 20 21 22 23 25 27 29 31 31 30 30
26 27 28 28 29 30 30 30 29 28 28 27 28 28 28 28 28 28 27 26 25 23 22 23 25 24 23 23 22 22 21 21 21 21 20 19 20 20 21 21 20 20 20 20 21 21 21 20 19 18 17 16 15 14 14 13 13 13 13 13 13 13 13 13 12 12 12 12 13 14 15 17 18 19 21 23 24 25 26 27 29 30 31 31 30
26 26 27 27 28 29 30 30 30 30 29 28 28 28 28 28 29 28 27 27 25 23 23 23 24 24 24 24 23 22 21 20 20 21 20 19 19 20 21 22 21 21 22 22 22 23 22 22 21 21 20 19 18 17 17 16 15 15 15 15 16 16 16 16 15 15 15 15 15 17 18 19 20 21 22 24 25 27 28 29 30 30 30 29 27
26 25 26 27 28 28 29 30 30 30 30 29 29 28 28 28 29 29 28 27 26 24 23 24 25 25 24 24 23 21 20 20 20 20 20 19 19 20 21 22 22 23 23 23 24 24 24 24 23 24 23 22 20 20 20 19 18 18 18 18 18 19 19 19 19 19 19 19 18 19 20 21 22 22 23 25 26 26 27 28 29 29 29 27 25
26 25 26 27 28 27 27 28 29 29 30 30 30 30 29 28 28 29 29 28 27 25 24 24 24 24 23 23 22 21 20 20 19 20 20 20 20 20 22 23 23 24 24 25 25 25 26 25 25 25 25 24 23 22 22 22 22 22 21 21 21 21 22 22 22 22 22 22 22 22 22 23 23 23 23 24 25 25 25 26 27 26 25 25 24
26 25 26 27 27 26 26 26 27 28 29 30 30 30 30 29 27 28 28 29 28 26 24 24 24 23 22 22 22 21 20 20 20 20 20 20 20 20 21 22 23 23 25 26 26 26 27 27 27 27 27 26 25 24 24 24 24 24 24 24 24 24 25 25 25 24 24 24 24 24 24 24 24 23 23 22 23 23 24 25 24 23 23 25 26
25 24 25 27 27 26 26 26 26 26 27 29 30 31 31 30 29 29 28 28 28 26 25 24 24 23 23 22 22 22 21 21 20 20 20 21 20 20 20 21 22 22 23 25 27 27 27 27 27 27 28 27 26 26 26 26 26 26 26 26 26 26 26 26 26 26 26 26 25 25 25 24 23 22 21 21 21 21 21 22 23 24 26 27 27
25 24 24 25 25 25 25 26 27 27 27 28 30 30 30 30 31 30 29 28 28 26 25 25 24 24 23 23 23 23 22 21 21 20 20 20 20 20 20 20 21 21 22 23 25 27 28 27 26 27 27 27 27 27 27 27 27 26 26 26 26 26 26 26 26 26 26 25 25 24 24 23 21 21 21 19 19 19 20 21 24 26 29 30 29
27 25 24 24 24 25 26 27 28 28 28 28 29 30 30 30 30 30 29 28 28 27 26 26 25 24 24 24 23 23 22 21 20 20 19 19 19 20 20 20 20 21 21 21 22 24 26 26 26 26 26 26 25 25 26 26 26 26 26 26 26 25 25 25 24 24 23 23 23 23 22 21 21 22 22 21 19 19 20 23 25 28 30 32 32
30 27 25 24 25 25 26 27 27 27 27 28 28 29 29 30 30 30 29 29 29 29 28 27 26 26 25 25 24 23 22 21 21 20 19 19 20 20 20 19 20 21 21 21 21 21 23 24 25 25 26 25 24 23 23 24 24 24 23 23 23 23 23 22 22 21 21 22 22 21 21 21 21 22 23 23 21 21 22 25 27 29 31 33 35
33 31 28 27 25 25 26 26 26 27 27 27 28 29 29 30 30 30 29 29 29 30 29 28 27 27 26 25 25 24 23 22 21 20 20 20 20 20 21 20 19 20 20 20 20 20 21 22 23 24 24 23 22 21 21 21 21 21 20 20 21 21 21 21 21 21 21 22 22 21 21 21 21 23 24 23 23 23 25 27 29 30 32 34 38
37 35 32 30 27 25 25 26 26 26 26 26 27 28 30 30 30 30 30 29 29 30 29 28 28 28 27 26 25 24 23 23 21 20 21 21 22 22 22 21 20 20 20 20 20 20 20 21 21 22 21 20 19 19 18 18 18 18 19 19 19 20 20 20 21 21 22 23 23 22 21 21 22 22 22 22 23 25 27 29 31 31 32 35 38
40 38 35 33 30 28 26 26 26 26 26 26 27 28 30 30 30 30 30 30 30 29 29 29 28 28 28 27 26 24 24 24 22 21 21 22 23 24 24 23 22 21 21 21 21 21 20 20 20 20 19 18 17 17 17 17 17 18 19 19 20 21 22 22 23 24 24 25 25 24 23 22 22 21 21 21 23 26 29 32 33 33 33 34 36
42 41 39 36 34 30 27 26 27 27 26 26 27 28 29 30 30 30 30 30 30 29 29 29 29 28 28 28 27 25 25 25 23 21 21 22 23 25 26 26 25 23 22 22 22 22 21 21 21 20 19 18 17 16 17 18 20 20 21 21 22 23 23 24 24 26 26 27 27 26 26 24 22 21 21 21 23 26 30 33 34 36 36 35 36
42 42 41 39 36 33 29 28 28 28 27 27 27 28 29 30 30 30 30 30 30 29 30 29 29 28 28 28 27 26 25 26 24 21 21 22 24 25 27 28 28 26 24 23 23 23 23 22 22 22 21 20 19 18 19 21 23 24 24 24 25 25 26 25 26 26 26 27 28 28 27 26 23 22 22 22 24 27 30 33 35 38 39 40 40
40 41 42 41 38 35 32 29 29 29 29 27 27 27 28 29 29 30 30 30 30 30 30 30 29 29 28 28 28 27 27 26 25 23 22 23 25 26 27 28 29 28 26 25 25 25 25 24 24 23 23 22 22 22 23 24 25 25 26 27 28 28 28 28 29 28 27 27 27 27 27 25 23 22 22 23 25 28 30 33 36 38 39 41 42
37 39 41 41 40 38 35 31 30 31 30 28 27 26 27 28 29 29 29 30 30 30 29 30 30 29 29 29 29 28 28 27 26 25 24 24 25 26 27 28 29 29 28 27 27 27 27 26 26 26 25 25 25 25 25 26 27 27 27 29 31 31 30 29 30 31 30 29 28 26 25 23 22 22 22 24 26 29 31 34 36 37 39 41 42
35 36 39 41 42 41 37 33 30 30 30 29 27 26 27 27 28 28 29 29 29 30 30 30 30 31 30 30 30 30 29 29 28 26 26 26 26 27 28 30 30 30 29 28 28 28 28 28 28 28 28 28 28 28 28 28 29 29 29 31 32 32 31 31 30 31 31 31 30 27 24 22 22 23 24 25 28 30 33 36 37 38 40 41 42
34 35 39 42 43 42 39 34 31 30 30 30 29 28 27 27 28 28 28 29 29 30 30 30 31 31 30 30 30 30 29 29 29 27 26 26 27 28 30 31 31 31 30 29 29 29 29 28 28 29 29 30 30 31 31 30 31 31 31 31 32 33 32 32 31 31 31 31 30 29 26 23 23 25 26 29 31 33 35 37 39 41 41 41 41
34 36 39 42 44 43 40 35 32 30 29 29 30 30 29 28 28 28 27 28 29 30 30 30 29 29 29 30 30 30 28 28 28 27 26 26 27 28 30 31 32 32 31 30 29 29 29 29 29 29 29 29 30 31 32 32 32 33 32 32 32 32 32 32 31 31 31 30 29 27 26 24 25 27 30 32 34 36 37 39 41 42 42 42 41
34 36 38 42 44 43 40 36 33 31 30 30 31 31 30 29 28 28 28 29 30 30 29 29 27 27 28 29 30 29 27 27 28 27 26 26 27 29 30 31 31 31 30 30 29 29 29 29 29 29 29 29 29 30 31 33 34 34 33 32 31 31 31 31 31 31 30 29 27 26 25 25 27 29 32 34 36 38 39 41 42 42 41 41 40
34 35 37 41 44 44 41 37 33 31 30 30 30 30 30 29 29 30 30 30 30 30 29 29 28 28 28 29 29 28 28 27 27 27 27 27 28 29 30 30 31 30 30 30 30 30 30 30 30 30 30 29 30 30 31 32 34 34 33 31 30 30 30 30 30 30 29 27 27 26 26 27 29 32 34 36 37 38 40 42 42 41 40 39 38
35 37 37 40 43 44 41 37 33 31 30 30 30 30 30 30 31 31 31 31 30 30 29 29 29 29 28 28 28 28 28 28 27 28 28 28 28 28 29 30 31 31 31 31 31 31 31 32 32 32 31 30 29 29 29 31 33 34 32 30 29 29 29 29 29 28 28 27 27 27 28 30 32 35 36 38 39 40 42 43 42 41 40 39 36
37 37 38 40 44 44 41 36 33 31 30 30 30 30 30 30 31 31 30 30 30 30 29 29 29 29 29 28 28 28 29 29 29 28 28 28 28 28 29 30 31 32 33 32 32 33 33 32 32 31 31 30 28 27 27 30 33 34 33 31 30 29 29 29 29 28 28 28 28 29 30 33 36 38 38 39 41 43 44 44 43 41 40 38 36
38 38 39 42 44 44 41 38 33 30 30 29 29 30 30 30 30 30 30 30 30 30 30 30 30 30 30 30 30 30 31 31 31 30 30 30 31 31 31 32 33 34 34 33 32 32 32 32 31 31 30 29 28 27 28 31 33 33 33 32 31 30 30 30 30 30 29 29 30 32 33 36 39 39 40 41 44 46 45 44 44 43 40 37 34
40 39 41 43 45 44 42 39 35 32 31 30 30 31 31 31 31 31 31 31 31 31 31 31 31 31 31 30 30 31 31 31 31 30 30 31 32 33 33 34 35 35 35 35 34 33 32 32 33 33 32 31 30 29 30 31 32 32 33 33 32 32 32 32 32 31 31 32 33 35 36 39 41 42 42 44 45 46 45 46 45 42 38 35 33
41 41 43 45 46 45 42 40 37 35 34 33 34 35 34 34 34 33 33 33 33 32 32 32 31 30 29 29 28 28 28 28 27 27 28 30 31 32 33 35 36 37 37 36 36 35 35 36 36 36 36 35 33 33 33 33 33 33 33 33 33 34 34 34 33 33 33 35 36 38 39 41 43 43 44 45 46 45 46 46 43 38 35 33 32
42 43 45 47 47 45 42 40 39 38 38 37 37 37 36 35 35 35 35 35 34 33 32 30 29 28 26 25 24 23 23 24 24 25 27 29 30 30 31 33 35 37 37 37 37 37 38 38 38 37 37 37 37 36 35 35 36 36 35 35 35 35 35 35 35 35 36 37 39 40 41 42 43 44 44 44 45 46 46 43 39 35 33 32 31
43 45 47 48 48 45 43 42 41 42 42 41 39 36 35 35 34 34 32 31 29 29 28 27 26 24 22 22 22 22 22 22 23 24 26 28 29 30 30 29 31 33 34 34 35 36 36 37 36 35 35 35 35 35 34 35 37 38 37 36 35 36 37 37 37 38 39 40 40 41 42 43 43 43 42 42 44 46 45 40 35 33 32 31 31
45 48 49 49 48 45 44 44 45 44 43 40 37 34 33 31 30 29 27 26 26 25 25 24 23 22 22 23 23 23 22 22 24 25 26 27 28 29 29 28 28 28 29 29 30 30 31 31 31 31 31 31 32 32 32 33 35 36 35 34 34 35 37 38 38 39 40 40 41 42 43 42 41 40 40 41 44 45 42 37 33 32 31 31 32
47 49 49 48 47 46 46 46 44 42 40 36 33 31 30 28 27 27 27 26 25 25 24 23 22 22 23 24 25 24 23 23 23 25 26 26 27 28 28 26 24 24 25 26 26 25 25 26 26 27 28 29 30 31 32 34 35 34 33 33 33 32 33 35 37 38 38 38 39 40 40 39 38 38 40 41 41 40 37 34 33 32 31 31 31
49 50 50 49 48 46 46 45 41 37 35 32 29 27 27 26 25 25 25 25 25 25 24 23 23 23 25 25 25 25 24 23 23 23 23 24 24 25 25 24 21 21 21 22 22 23 23 24 26 27 28 29 31 32 33 34 34 33 32 32 31 30 29 29 30 31 32 33 35 36 35 35 35 37 38 38 36 34 33 33 33 32 31 30 30
48 48 49 49 48 46 44 41 39 35 32 29 27 25 24 24 25 25 25 25 25 25 24 24 24 25 26 26 26 25 24 24 23 22 22 22 22 22 22 22 22 22 22 24 25 26 26 27 28 29 30 30 30 30 32 33 33 33 33 31 29 28 27 25 25 27 29 29 32 34 34 33 33 35 35 34 32 32 32 32 32 32 31 30 29
48 45 43 43 44 44 42 39 37 36 33 30 29 27 25 26 28 28 26 25 25 26 26 25 25 26 27 27 27 26 26 26 25 25 24 23 23 23 24 27 30 31 30 30 30 30 29 29 30 30 31 29 28 28 30 31 32 33 33 31 28 29 28 27 28 30 30 30 32 34 33 32 32 33 33 32 31 31 31 31 31 32 32 30 29
48 45 42 40 39 40 42 41 38 36 33 31 31 32 30 30 30 29 28 27 28 29 29 27 27 27 28 29 30 29 29 29 28 28 28 27 28 28 29 31 33 34 33 32 31 31 31 31 30 30 31 30 29 29 30 31 32 33 33 32 31 30 30 31 33 33 32 32 33 34 33 33 33 33 32 32 32 31 31 31 31 32 32 30 29
46 48 48 43 35 32 37 41 40 36 34 33 33 34 33 33 33 32 31 31 31 31 30 28 29 30 31 32 32 33 32 32 32 32 33 33 33 33 33 32 33 34 35 34 33 32 32 31 31 31 31 32 32 32 31 32 32 33 33 33 33 33 32 33 33 32 31 31 31 32 34 34 34 33 32 32 32 31 31 32 32 32 32 30 29
43 46 47 43 36 31 33 37 37 36 35 33 32 33 33 33 34 34 33 31 31 30 30 30 31 32 32 32 32 33 33 34 35 35 36 36 35 35 35 34 35 36 36 36 35 33 32 32 32 32 32 33 33 33 32 31 32 32 32 33 34 34 33 32 32 32 32 33 32 33 34 33 32 32 32 31 31 30 31 32 32 31 31 30 29
41 44 43 40 36 34 35 36 37 37 36 35 35 35 35 34 34 33 31 31 32 32 32 32 33 33 33 33 32 32 33 34 35 36 36 36 35 35 35 36 37 37 37 37 35 33 32 33 34 33 33 34 34 33 32 32 32 33 33 34 33 32 32 33 33 33 33 34 34 35 33 31 30 31 31 30 30 30 31 32 32 31 29 29 29
41 43 42 40 38 37 38 39 39 38 37 37 37 36 34 32 32 32 32 33 34 34 33 33 32 32 32 32 32 32 33 33 34 34 34 34 34 34 35 36 36 37 36 36 35 33 33 35 35 35 34 34 34 34 34 34 34 34 33 32 32 30 31 32 32 32 33 34 35 33 31 30 31 31 31 31 31 31 31 31 31 30 29 29 29
43 43 44 43 41 39 38 39 37 36 36 36 35 33 32 31 31 31 30 30 30 30 29 29 28 28 29 30 30 31 32 32 32 32 32 32 33 35 35 36 36 36 35 35 35 34 34 36 36 35 35 34 34 33 34 35 35 33 32 33 33 32 31 32 33 33 33 33 32 31 31 31 32 31 31 31 31 30 30 30 30 30 30 29 29
43 44 44 44 41 38 37 36 34 34 34 34 33 32 31 30 28 27 26 26 25 25 25 25 25 26 27 28 29 30 31 31 31 32 32 33 33 34 34 33 33 33 32 32 32 32 33 34 34 34 34 33 32 32 33 33 32 30 29 30 32 32 32 34 35 33 31 30 30 31 31 31 31 31 31 31 30 30 30 31 31 31 31 30 30
36 39 40 40 38 36 35 34 34 33 33 33 32 31 29 27 26 25 24 24 24 23 24 24 25 26 27 28 29 30 31 31 31 32 31 31 30 30 30 29 29 28 28 28 29 29 30 31 31 32 32 32 32 31 30 30 29 27 26 28 31 32 33 34 33 30 29 29 30 30 30 30 30 31 31 31 31 31 31 31 31 31 31 30 30
25 29 32 33 32 32 32 32 33 33 34 33 32 28 25 24 23 23 23 23 23 23 24 25 25 26 26 27 27 28 29 29 28 28 27 27 27 27 27 26 26 26 26 26 26 27 28 29 29 30 31 31 30 30 29 28 28 28 28 29 30 32 32 32 31 30 30 30 30 29 29 30 31 31 31 32 32 31 31 31 31 31 31 31 30
18 20 23 25 26 26 27 28 29 30 32 32 30 27 23 22 22 22 22 22 23 24 24 25 24 24 24 24 24 25 25 24 24 25 25 25 25 26 26 27 27 27 27 27 27 27 26 27 27 28 28 27 28 29 29 29 29 29 29 29 29 30 30 31 31 31 31 30 30 30 30 31 31 31 32 33 33 32 32 31 31 31 32 31 30
20 21 22 26 29 29 29 29 27 28 29 30 29 26 24 22 21 21 22 22 23 24 24 24 23 22 22 22 22 23 23 23 24 25 26 25 25 26 27 27 28 28 28 28 28 28 27 26 26 26 26 26 27 29 29 28 29 29 29 29 30 30 31 31 31 31 31 30 30 31 32 32 33 33 34 34 34 34 33 32 31 32 32 32 31
20 19 20 23 26 27 28 28 27 26 27 28 27 26 24 23 22 22 21 22 22 22 23 23 22 22 21 22 23 23 24 25 25 26 27 27 27 28 27 27 28 28 28 28 28 28 27 26 25 25 26 26 27 27 28 28 29 29 30 30 31 31 32 32 32 32 32 31 31 32 33 34 34 35 35 35 36 35 35 33 32 32 33 33 33
15 16 18 20 21 21 21 22 22 22 23 24 24 23 22 21 21 20 21 21 21 21 22 22 23 23 23 24 25 26 26 27 26 26 27 27 27 27 27 28 28 27 26 25 25 24 23 23 23 24 26 26 27 27 28 29 29 30 31 32 32 33 33 33 33 33 33 33 33 34 35 36 36 36 36 36 36 35 35 34 33 33 33 33 33
9 11 14 17 18 19 19 19 19 20 20 21 21 21 21 21 21 21 22 22 23 23 24 25 25 26 27 27 27 27 28 28 27 27 27 27 27 26 27 27 26 25 23 22 22 22 23 24 25 26 26 26 27 28 29 30 31 32 33 33 34 34 34 34 33 34 34 35 36 37 37 37 38 37 37 36 36 36 35 35 34 34 34 34 33
11 10 11 12 14 16 18 19 19 19 19 20 21 21 22 22 22 22 22 23 24 25 26 27 28 28 29 29 29 29 29 28 28 28 27 27 26 25 25 25 25 24 24 24 24 25 26 26 27 27 27 27 28 29 31 32 34 34 35 35 35 34 34 34 35 36 37 38 38 38 38 37 37 37 37 37 36 36 35 35 34 34 34 34 33
14 14 13 12 11 12 15 17 19 20 20 20 21 22 22 23 22 22 22 22 23 24 25 26 27 28 28 29 29 29 28 27 27 27 27 25 24 24 24 25 25 26 26 26 26 26 27 27 27 28 29 29 30 32 33 34 35 36 36 35 35 34 35 36 36 37 38 38 37 37 36 36 36 36 36 35 35 35 35 35 34 34 33 33 33
Wind_Direction
222 223 223 225 225 226 226 226 226 226 225 225 225 226 228 227 228 230 231 230 232 231 227 224 223 223 224 228 231 235 236 237 238 237 233 228 224 224 223 222 222 222 224 226 228 229 231 232 235 237 238 240 245 249 251 254 256 258 264 269 275 279 278 279 276 271 279 290 298 303 306 310 314 316 317 319 321 322 323 322 319 318 320 322 324
221 221 222 224 224 225 226 226 227 227 226 226 226 226 228 228 229 230 232 232 232 232 229 226 225 224 225 229 232 236 239 241 243 242 240 235 231 229 229 227 226 224 225 228 231 232 233 235 238 240 243 246 250 255 259 263 266 268 272 275 280 283 282 282 283 279 278 283 289 292 296 301 305 307 309 311 313 313 313 314 313 314 316 318 320
221 220 220 221 222 224 225 226 226 226 227 227 227 227 229 230 230 231 233 234 233 232 229 227 227 226 228 232 234 237 240 242 244 245 244 241 237 235 234 233 231 229 228 230 232 234 235 237 240 242 244 246 250 255 258 261 267 271 275 278 280 284 284 284 284 284 283 284 289 294 297 300 303 306 308 309 309 308 308 308 309 310 313 316 318
219 218 218 219 220 222 223 224 225 226 227 227 226 227 229 231 232 232 233 235 234 232 229 229 229 229 230 233 234 237 240 240 243 246 247 244 241 240 239 237 235 234 233 233 234 236 237 238 241 244 244 245 248 255 259 261 264 268 272 276 278 281 283 284 285 285 285 286 289 293 297 298 301 303 304 304 304 305 307 308 308 308 310 314 316
220 216 215 217 219 220 221 222 224 225 226 227 226 227 229 230 232 232 232 234 234 232 229 230 231 231 232 234 236 237 240 241 242 245 247 246 243 243 242 240 238 236 236 237 237 239 240 240 241 244 246 246 247 253 258 262 265 267 269 273 276 279 282 284 287 288 289 290 291 294 296 298 299 300 301 301 301 302 305 304 304 306 309 312 314
221 217 214 216 218 219 219 220 222 224 226 228 227 227 228 228 229 230 231 232 234 233 231 231 233 235 235 237 238 238 239 241 242 244 246 246 244 243 244 243 241 239 238 239 239 241 242 242 242 244 247 248 249 252 257 261 265 267 270 273 276 279 282 285 287 289 291 292 293 295 297 299 300 301 302 301 301 303 302 300 300 303 306 309 312
224 220 216 217 218 218 218 219 220 221 223 226 228 228 228 226 226 228 229 230 232 232 232 233 235 237 238 239 240 239 239 241 242 243 245 247 246 244 245 247 246 243 241 240 241 242 243 244 245 245 247 250 251 253 256 259 263 266 269 272 276 279 283 285 287 289 291 293 295 297 299 301 303 304 305 303 302 302 300 298 301 305 309 310 312
228 224 219 219 220 219 218 218 219 220 221 223 226 228 228 227 227 229 228 228 230 231 232 234 236 238 239 240 241 240 239 240 242 243 244 247 248 247 247 249 250 249 246 244 243 243 244 246 247 248 249 250 252 254 257 259 263 266 269 273 275 278 281 284 287 289 292 294 296 298 299 302 304 305 303 302 299 298 298 300 305 311 314 313 314
229 227 223 222 221 220 219 218 219 219 219 220 223 226 228 229 230 231 229 228 230 231 231 233 235 236 238 239 240 241 240 239 242 243 244 247 250 251 250 250 252 253 252 249 246 245 245 246 247 249 251 252 252 254 257 260 263 267 270 272 275 278 281 283 286 289 292 294 295 297 297 300 304 305 303 301 297 296 301 305 309 314 316 315 318
228 229 227 223 222 221 220 220 219 219 219 219 221 223 226 228 231 232 230 229 231 232 232 233 233 235 237 238 239 241 240 238 240 243 245 248 251 254 253 251 253 255 255 254 251 248 247 247 247 249 251 253 254 254 257 260 264 267 270 273 275 278 280 283 286 289 292 293 294 295 295 299 305 306 306 306 303 303 308 311 311 314 316 317 321
227 230 228 225 224 222 220 221 222 221 220 219 219 221 223 225 229 232 231 230 231 233 233 233 234 235 236 237 238 240 239 238 238 240 244 247 250 253 255 253 252 254 256 256 254 252 249 247 247 248 250 253 254 255 257 259 263 266 269 273 276 278 281 284 289 292 294 294 294 295 297 301 304 305 307 309 308 309 312 312 312 312 315 320 323
224 226 226 226 226 224 222 222 223 223 222 221 219 220 222 223 226 230 230 229 231 233 233 232 233 235 236 237 237 239 239 237 237 238 241 245 249 252 254 254 252 252 255 255 254 252 249 247 246 247 249 251 254 255 255 257 262 266 270 273 277 281 285 290 294 297 297 297 296 297 300 301 301 303 306 308 308 309 311 311 312 314 319 323 325
221 222 223 225 227 226 223 221 222 223 223 222 220 220 222 223 224 226 228 228 229 231 232 232 232 234 236 237 237 238 239 238 236 237 238 241 246 250 252 253 253 252 252 253 252 250 248 246 246 247 249 250 251 254 256 257 261 266 271 276 279 284 289 292 295 297 298 298 297 298 300 298 296 299 303 303 305 308 310 312 313 316 321 323 323
219 220 221 223 227 228 225 221 220 221 222 222 221 220 222 223 223 225 226 226 227 229 230 232 232 232 235 238 237 237 240 240 237 237 238 239 242 247 250 251 252 251 250 250 250 249 247 246 246 247 248 249 248 251 256 261 264 267 271 276 280 284 288 291 295 297 298 298 297 297 297 294 291 293 296 298 302 307 310 312 313 316 319 320 321
218 218 218 221 225 228 226 221 218 219 220 222 222 221 221 222 223 224 225 226 226 227 229 231 232 232 234 237 238 237 239 241 238 235 237 239 240 243 246 249 250 249 248 248 249 249 248 247 246 247 248 249 249 252 257 262 267 270 273 276 279 282 284 287 289 291 293 296 296 295 293 290 288 289 292 296 301 305 307 309 312 316 317 318 321
218 216 217 220 225 227 226 221 217 217 219 222 222 221 221 221 221 222 224 225 226 226 227 230 231 231 232 235 237 237 237 240 239 235 235 239 240 241 244 247 249 250 249 248 248 248 247 246 246 246 247 248 250 252 256 261 265 269 274 277 280 283 285 287 288 287 287 288 288 288 287 287 286 286 288 294 300 303 305 308 312 315 316 317 319
218 217 217 220 224 226 226 221 217 217 219 222 223 222 221 221 220 221 222 224 225 225 226 228 230 231 231 233 236 238 238 239 240 237 234 236 241 243 244 246 249 250 250 249 248 248 247 246 246 246 246 247 249 251 255 259 263 268 273 276 279 282 285 288 289 289 288 285 282 280 280 278 277 278 285 293 299 302 303 305 309 311 313 316 317
220 218 217 220 223 225 225 222 218 218 219 222 224 223 223 222 220 220 221 223 225 226 226 228 230 231 232 234 236 238 240 240 240 239 236 236 240 243 245 247 249 250 250 250 250 249 248 247 248 248 248 249 250 252 255 258 262 266 271 275 278 279 282 284 286 287 287 286 282 279 275 272 273 278 286 293 297 300 301 304 308 311 314 316 316
224 221 218 219 222 224 223 222 220 219 220 221 222 224 225 224 222 221 221 222 225 227 227 227 229 231 233 235 236 238 240 241 241 239 237 236 238 241 244 246 248 250 250 249 250 251 250 248 248 248 249 250 252 254 256 258 262 265 268 272 275 278 281 282 282 282 283 284 284 282 277 274 276 282 287 292 297 301 304 306 310 313 315 315 314
226 223 218 217 221 223 222 221 221 220 220 220 221 223 225 226 226 224 223 223 224 227 229 229 230 231 233 235 237 237 238 240 241 239 237 236 237 239 242 245 247 249 250 250 250 251 252 251 250 249 250 251 253 256 258 260 263 266 268 270 274 277 279 280 280 281 280 281 281 280 278 278 283 288 293 297 300 302 303 307 311 313 314 313 312
225 222 218 217 220 222 222 221 220 221 220 219 220 223 225 227 228 227 225 224 225 226 229 230 230 231 232 234 236 237 236 236 238 238 236 236 237 239 241 244 247 249 251 251 252 253 253 254 254 253 253 253 254 258 261 263 265 267 268 270 273 276 278 279 279 279 278 278 276 274 273 277 283 288 292 295 298 300 303 307 311 312 312 312 311
225 224 220 218 220 222 221 220 219 220 220 219 220 222 224 226 228 228 226 225 226 226 228 229 229 229 230 232 234 236 235 234 236 238 237 236 237 239 242 245 247 250 252 253 253 254 255 256 256 256 256 256 256 257 260 263 266 268 270 272 273 273 274 275 276 277 277 277 273 269 270 275 280 284 288 292 295 298 302 306 308 310 311 310 308
226 224 220 219 220 221 220 218 218 219 220 220 220 221 223 224 226 226 225 225 225 225 226 228 229 229 230 232 234 236 237 236 236 238 238 238 238 239 242 245 248 250 252 253 255 255 256 257 258 258 258 258 257 257 259 263 266 269 271 272 271 271 271 273 274 276 276 273 269 268 271 276 280 284 287 290 293 296 300 303 306 309 309 307 305
224 222 219 219 219 219 218 216 216 218 220 220 219 220 220 222 223 224 224 224 225 225 226 227 230 231 232 232 233 236 238 239 238 238 238 239 240 241 242 245 249 251 252 253 255 256 257 257 258 259 260 261 261 261 261 262 265 268 269 270 270 269 270 271 273 273 272 269 267 268 272 276 281 283 286 289 293 295 298 301 306 309 308 305 302
220 219 217 217 217 217 215 213 213 216 218 217 216 217 218 218 220 221 221 222 224 225 226 228 231 234 235 236 238 240 242 243 243 242 241 242 243 243 243 244 247 250 252 253 254 255 257 258 259 261 262 263 264 264 263 261 262 265 267 268 268 268 268 269 270 270 269 268 268 269 272 276 279 281 285 289 291 293 297 301 306 308 306 302 300
215 214 214 214 214 213 213 212 211 214 216 215 214 215 216 216 217 219 220 222 225 228 231 235 238 241 244 246 248 250 251 252 252 252 250 248 246 245 245 245 246 249 251 252 253 254 256 258 260 261 262 263 263 263 261 259 261 264 266 267 267 267 268 268 269 269 269 268 268 269 272 274 277 280 285 288 290 293 297 302 306 306 303 299 297
211 211 210 210 211 212 213 212 212 213 214 213 214 216 217 219 221 223 226 230 233 236 240 244 247 250 253 255 257 259 260 260 260 260 257 252 248 247 246 247 247 248 250 252 254 255 257 258 260 261 261 261 261 260 260 260 261 264 266 267 268 268 267 267 268 269 269 269 269 270 272 275 278 282 285 288 289 292 297 301 304 303 299 296 295
207 208 208 207 209 212 213 213 213 214 214 215 218 221 224 226 230 233 236 239 242 245 248 251 254 257 259 261 262 262 261 260 259 256 253 250 248 246 245 245 246 247 248 250 252 254 255 255 256 258 260 261 261 260 261 262 262 263 264 265 266 267 267 267 268 269 269 269 270 271 273 276 279 282 285 288 290 292 297 301 301 297 294 293 293
205 205 205 206 208 212 213 213 213 214 215 218 222 226 229 233 236 239 241 243 245 248 250 251 253 256 257 258 257 253 250 248 247 245 244 244 244 243 242 243 244 245 246 248 250 252 253 254 256 258 260 263 264 265 265 266 266 266 265 265 265 266 267 268 269 269 268 269 269 271 273 275 278 282 285 289 290 292 296 298 296 292 291 292 293
203 203 204 206 210 213 213 212 213 215 218 222 226 230 233 236 238 240 240 240 241 242 244 246 247 247 247 247 245 242 238 237 237 239 240 241 242 242 241 241 244 245 246 248 250 252 254 257 259 261 263 265 267 269 270 270 270 270 269 268 266 266 266 266 266 267 268 269 270 272 274 276 279 283 286 287 288 290 292 292 289 289 290 292 292
202 203 205 208 212 213 213 214 215 217 220 224 228 231 233 233 233 233 232 232 234 237 239 241 241 239 238 238 239 239 238 236 235 237 240 243 245 245 244 242 244 247 250 251 252 253 256 258 260 261 263 265 267 270 271 270 270 272 273 271 269 267 267 266 266 266 268 270 272 273 274 277 279 281 283 284 286 287 287 286 286 288 290 290 290
202 204 207 211 214 215 215 216 218 219 223 225 225 224 224 224 224 225 227 229 231 233 235 234 232 232 233 234 234 236 237 237 238 239 242 245 247 249 249 248 248 251 254 256 256 256 258 259 260 261 263 265 267 269 270 271 272 274 275 275 274 271 269 268 268 268 269 270 272 274 276 277 277 277 279 282 283 283 283 285 287 288 288 287 288
202 204 208 212 214 214 215 218 219 219 219 218 214 212 215 218 221 224 226 228 229 229 229 229 227 228 231 233 233 233 235 237 239 243 246 250 253 255 256 256 256 254 254 257 259 260 261 262 263 263 263 264 265 267 269 271 273 275 277 278 278 276 273 272 271 269 268 268 270 272 273 272 272 274 277 279 278 279 282 285 287 287 286 287 288
200 204 207 211 213 213 215 216 213 208 205 204 205 211 217 221 224 226 225 226 229 230 229 229 229 229 232 235 234 234 235 237 240 242 246 251 256 258 259 263 265 264 264 266 267 266 265 265 265 265 267 268 269 269 269 270 271 273 274 275 276 276 277 275 269 264 264 266 267 266 266 267 270 273 274 274 274 278 282 284 285 285 285 286 289
200 201 203 205 208 211 211 207 201 198 197 201 208 217 220 220 222 225 224 225 230 233 232 233 234 234 236 238 238 238 238 238 240 241 242 244 246 250 256 264 268 269 268 266 263 262 263 264 266 269 273 274 273 270 269 269 270 272 271 269 269 271 273 271 268 267 268 266 264 263 264 268 271 271 271 272 275 279 282 283 283 284 285 287 289
201 202 203 203 202 203 202 199 196 197 202 209 217 223 222 220 221 224 226 229 234 237 238 240 242 241 241 242 243 243 243 242 243 245 245 246 248 251 255 260 261 261 260 258 258 259 262 265 267 271 273 273 271 269 268 270 273 274 273 270 267 266 266 265 266 269 269 265 263 266 270 273 274 274 273 274 277 279 282 282 282 283 285 287 289
201 204 206 207 206 203 199 197 198 203 208 214 219 222 222 222 223 227 230 233 237 240 243 246 247 246 246 246 247 248 248 248 249 250 250 252 254 255 255 255 254 254 256 257 259 262 264 266 268 269 269 268 267 266 267 270 274 274 273 271 268 265 264 263 264 267 268 266 267 272 276 276 277 276 275 275 276 279 281 281 282 284 286 287 288
203 206 207 206 207 206 201 200 203 208 212 214 216 218 221 223 225 228 233 237 239 240 242 245 246 247 247 248 250 252 253 254 254 254 254 255 255 254 254 254 253 254 256 258 260 262 263 265 266 266 265 265 263 262 265 270 272 271 267 265 264 264 263 264 264 265 267 269 271 275 276 276 276 276 274 274 276 278 280 282 283 285 286 288 290
203 207 208 207 206 205 204 205 207 209 210 211 214 217 221 224 228 233 239 243 245 245 245 246 246 246 246 247 249 252 254 255 255 255 255 255 255 256 256 255 255 256 258 260 261 263 263 263 263 262 262 262 261 260 262 264 264 263 261 261 262 262 261 260 260 261 264 269 273 276 276 276 275 275 275 276 277 278 281 282 283 284 285 288 290
201 205 207 209 209 208 207 209 209 208 208 210 214 217 221 226 233 240 243 245 247 248 248 248 247 245 244 245 247 249 252 253 254 255 257 258 259 259 259 258 258 260 261 262 263 261 259 259 259 259 259 259 258 258 259 260 260 260 260 260 262 263 262 260 259 261 267 273 276 277 276 276 275 276 277 278 278 279 281 282 283 285 286 288 289
199 203 205 208 211 212 211 211 211 210 211 213 217 222 227 232 236 239 241 242 243 243 243 243 243 242 242 243 245 247 250 253 255 257 258 258 258 258 258 258 259 260 261 261 260 258 254 254 255 255 255 254 254 256 259 261 263 263 262 261 260 261 261 261 261 263 269 273 276 276 276 276 277 277 277 278 279 280 281 282 284 285 286 288 289
195 200 203 205 207 209 210 211 212 213 216 220 224 227 229 230 230 231 233 234 236 236 237 238 238 239 241 243 245 247 250 253 255 255 255 255 255 255 256 256 257 257 256 255 254 252 251 252 252 252 251 251 255 260 262 263 264 265 264 262 261 260 259 261 263 266 270 272 272 272 274 275 276 278 279 280 281 283 283 284 285 285 285 287 289
191 194 197 199 200 201 203 207 212 216 221 224 225 225 225 225 226 228 230 232 234 235 235 236 237 238 241 243 245 247 250 250 251 252 252 252 251 251 250 250 249 249 249 249 249 249 250 251 251 251 251 253 257 259 258 257 259 262 264 265 265 266 266 268 270 272 273 272 272 274 276 277 279 281 282 283 283 283 283 284 284 284 285 287 289
194 193 195 195 196 199 203 208 213 218 222 223 221 221 223 226 228 229 231 233 235 236 236 236 236 237 240 242 244 246 247 248 249 250 249 246 245 245 244 244 243 243 244 246 247 248 249 251 252 253 254 255 256 256 255 256 261 265 267 266 266 267 268 271 273 275 275 276 277 279 281 281 282 283 282 282 282 283 283 283 283 284 285 287 288
213 211 210 208 206 208 212 214 214 216 219 220 219 218 222 227 229 229 229 230 231 233 234 234 235 236 237 240 241 243 244 244 245 250 251 247 244 243 243 243 244 245 245 245 246 248 252 255 256 257 256 256 255 256 257 259 263 265 266 265 265 266 268 270 272 273 275 277 279 280 281 282 282 282 281 281 281 281 281 281 282 283 284 285 285
211 218 223 224 225 227 229 226 220 216 216 217 217 217 218 222 225 226 226 227 228 229 231 232 232 233 235 238 240 243 243 242 243 249 253 253 250 248 247 248 250 251 250 248 250 254 257 258 257 255 253 252 253 255 257 259 261 262 262 264 265 267 268 270 271 273 275 277 278 279 280 280 279 279 279 279 279 279 279 280 281 282 283 283 283
191 197 204 210 216 222 225 223 219 214 213 213 214 215 216 218 220 221 222 223 224 226 228 230 232 233 236 239 243 245 247 246 246 248 250 252 252 252 251 252 254 256 256 254 253 254 254 253 252 252 252 253 256 259 260 260 261 261 262 264 266 267 269 271 273 274 275 276 276 277 278 278 278 278 278 279 279 280 280 281 281 281 281 282 282
180 183 188 191 194 200 207 212 213 212 210 210 211 213 215 217 219 220 221 223 226 227 229 231 233 234 236 238 240 243 246 247 248 249 251 253 253 253 254 256 258 259 258 254 250 248 250 252 255 257 258 259 260 261 261 261 261 262 264 266 268 270 272 273 274 274 275 275 276 277 278 279 279 279 279 280 280 280 281 282 282 281 282 282 283
194 189 191 193 195 198 201 204 208 212 214 214 215 217 220 222 225 227 227 229 230 232 233 234 235 236 237 237 238 239 242 244 245 247 249 251 252 252 253 256 257 255 252 249 248 250 254 257 259 258 258 258 259 261 262 262 263 264 266 267 269 270 272 273 274 275 277 278 278 279 279 279 279 279 279 278 278 279 280 281 282 282 282 282 281
230 220 208 205 207 209 209 209 211 214 218 221 224 226 227 228 230 232 233 235 236 236 236 237 237 237 238 239 240 241 242 244 245 246 247 249 251 252 252 252 252 251 249 249 250 252 255 256 255 255 256 258 260 262 264 264 265 266 267 268 269 270 272 274 276 278 279 279 279 279 279 279 279 278 278 278 278 279 279 280 281 281 281 281 279
246 243 236 234 232 229 227 225 223 222 224 227 231 234 235 235 236 237 238 239 240 240 241 241 241 241 241 241 241 242 243 245 248 250 251 252 252 252 251 250 249 247 246 247 247 249 250 251 251 252 255 258 261 263 264 266 266 267 268 268 269 271 273 275 277 278 279 279 279 279 280 280 279 279 279 279 279 279 279 279 279 279 279 278 277
Height
3182 3184 3187 3189 3192 3194 3197 3199 3201 3203 3205 3207 3209 3211 3213 3214 3216 3217 3218 3220 3221 3222 3224 3226 3227 3229 3230 3231 3232 3233 3234 3235 3236 3238 3239 3240 3241 3243 3243 3244 3246 3247 3248 3249 3250 3250 3251 3252 3253 3254 3254 3255 3255 3256 3256 3256 3257 3257 3257 3258 3258 3258 3258 3258 3258 3258 3258 3258 3257 3257 3257 3257 3256 3256 3255 3254 3253 3252 3251 3250 3249 3248 3247 3247 3245
3180 3182 3184 3187 3189 3192 3194 3197 3199 3201 3203 3205 3207 3209 3210 3212 3214 3215 3216 3218 3219 3221 3222 3224 3225 3227 3228 3229 3230 3231 3232 3233 3234 3236 3237 3238 3240 3241 3242 3243 3244 3245 3246 3247 3248 3249 3250 3251 3252 3252 3253 3254 3254 3255 3255 3255 3256 3256 3256 3257 3257 3257 3257 3257 3257 3257 3257 3257 3257 3257 3257 3256 3256 3255 3254 3253 3253 3252 3250 3249 3247 3246 3246 3245 3244
3178 3180 3182 3185 3187 3189 3192 3194 3197 3199 3201 3203 3205 3207 3209 3210 3212 3213 3215 3216 3218 3219 3221 3222 3223 3225 3226 3227 3228 3229 3230 3232 3233 3233 3235 3236 3238 3239 3240 3242 3243 3244 3245 3246 3247 3248 3248 3249 3250 3251 3252 3253 3253 3253 3254 3254 3255 3255 3255 3255 3255 3255 3256 3256 3256 3256 3256 3256 3256 3256 3256 3255 3255 3254 3253 3252 3251 3250 3249 3248 3246 3245 3244 3243 3242
3175 3177 3180 3182 3184 3186 3189 3191 3194 3196 3198 3200 3203 3205 3206 3208 3210 3211 3213 3214 3216 3217 3219 3220 3222 3223 3224 3225 3226 3228 3229 3230 3231 3231 3233 3234 3236 3237 3238 3240 3241 3242 3243 3244 3245 3246 3247 3248 3249 3249 3250 3251 3252 3252 3252 3253 3253 3254 3254 3254 3254 3254 3254 3254 3254 3254 3254 3254 3254 3254 3254 3254 3253 3253 3252 3251 3250 3248 3247 3246 3244 3243 3242 3242 3241
3173 3175 3178 3180 3182 3184 3186 3189 3191 3193 3196 3198 3200 3202 3204 3206 3207 3209 3211 3212 3214 3215 3217 3218 3220 3221 3223 3224 3225 3226 3227 3228 3229 3230 3231 3232 3233 3235 3236 3237 3238 3240 3241 3242 3243 3244 3245 3246 3247 3247 3248 3249 3251 3251 3251 3251 3252 3252 3253 3253 3253 3253 3253 3253 3253 3253 3252 3252 3253 3253 3252 3252 3252 3251 3250 3249 3248 3247 3246 3244 3242 3241 3241 3240 3239
3171 3174 3176 3177 3179 3181 3183 3186 3188 3191 3193 3195 3198 3200 3202 3203 3205 3206 3209 3210 3212 3213 3215 3216 3218 3219 3221 3222 3223 3225 3226 3227 3227 3228 3229 3230 3231 3232 3233 3234 3236 3237 3239 3240 3241 3242 3243 3244 3245 3245 3246 3247 3249 3249 3249 3250 3250 3250 3251 3251 3251 3251 3251 3251 3251 3251 3251 3250 3250 3250 3250 3250 3249 3249 3249 3247 3246 3244 3243 3242 3241 3240 3239 3238 3237
3169 3171 3174 3175 3177 3179 3181 3183 3185 3188 3191 3193 3195 3197 3199 3201 3203 3204 3206 3208 3209 3211 3213 3214 3216 3217 3219 3220 3222 3223 3224 3225 3226 3227 3227 3228 3229 3230 3231 3232 3233 3235 3236 3237 3238 3239 3240 3241 3242 3243 3244 3245 3246 3247 3248 3248 3248 3249 3249 3249 3249 3249 3249 3249 3249 3249 3249 3248 3248 3248 3248 3247 3247 3246 3246 3245 3244 3242 3241 3239 3238 3238 3237 3236 3234
3167 3169 3171 3173 3175 3177 3179 3181 3183 3185 3188 3190 3192 3195 3197 3199 3200 3202 3203 3205 3207 3209 3211 3212 3214 3215 3217 3218 3220 3221 3222 3223 3224 3225 3226 3226 3227 3228 3229 3230 3231 3232 3233 3235 3236 3237 3238 3239 3240 3241 3242 3243 3244 3245 3246 3246 3246 3247 3247 3247 3247 3247 3247 3247 3247 3247 3247 3246 3246 3245 3245 3245 3245 3244 3244 3243 3242 3240 3239 3237 3236 3235 3235 3233 3232
3164 3167 3169 3171 3173 3175 3177 3179 3181 3183 3185 3187 3189 3192 3194 3196 3198 3199 3201 3203 3205 3207 3209 3210 3211 3213 3214 3216 3217 3218 3220 3221 3222 3223 3224 3225 3226 3227 3228 3229 3229 3230 3231 3232 3233 3234 3235 3236 3238 3238 3239 3240 3242 3243 3243 3244 3244 3244 3245 3245 3245 3245 3245 3245 3245 3245 3245 3244 3244 3243 3243 3243 3243 3242 3241 3241 3240 3238 3237 3236 3235 3233 3232 3231 3230
3161 3164 3166 3169 3171 3173 3175 3176 3178 3180 3182 3184 3186 3189 3191 3194 3195 3197 3199 3201 3203 3204 3206 3207 3208 3210 3211 3213 3215 3216 3217 3219 3220 3221 3223 3223 3224 3225 3225 3227 3227 3228 3229 3230 3230 3231 3233 3234 3235 3236 3237 3238 3239 3240 3241 3242 3242 3242 3243 3243 3243 3243 3243 3243 3243 3243 3242 3242 3242 3241 3241 3241 3240 3239 3239 3238 3238 3236 3236 3234 3233 3231 3229 3228 3228
3158 3161 3163 3166 3168 3170 3172 3174 3176 3177 3179 3181 3184 3186 3188 3191 3193 3194 3196 3199 3200 3202 3203 3204 3206 3207 3209 3210 3212 3213 3215 3216 3218 3220 3221 3222 3222 3223 3223 3225 3226 3226 3227 3227 3228 3229 3230 3231 3232 3234 3234 3236 3237 3238 3239 3239 3240 3240 3241 3241 3241 3240 3240 3240 3240 3240 3240 3240 3240 3239 3239 3238 3238 3237 3236 3236 3235 3234 3233 3232 3231 3229 3228 3226 3225
3155 3158 3160 3163 3165 3167 3170 3172 3173 3175 3177 3179 3181 3183 3185 3188 3190 3191 3193 3196 3197 3199 3200 3202 3204 3205 3206 3208 3209 3211 3212 3214 3216 3218 3219 3220 3220 3221 3222 3222 3223 3224 3225 3225 3226 3227 3228 3229 3230 3231 3232 3234 3235 3236 3236 3237 3238 3238 3239 3239 3239 3238 3238 3238 3238 3238 3238 3237 3237 3237 3237 3236 3235 3235 3234 3233 3232 3232 3231 3230 3229 3227 3226 3224 3221
3152 3155 3158 3160 3162 3165 3167 3169 3171 3173 3175 3177 3179 3181 3182 3184 3186 3188 3191 3193 3195 3196 3198 3199 3201 3202 3203 3205 3207 3208 3210 3211 3213 3215 3217 3218 3218 3219 3220 3220 3221 3222 3223 3224 3224 3225 3226 3227 3228 3229 3230 3232 3233 3233 3234 3235 3236 3236 3236 3237 3237 3237 3236 3236 3236 3236 3236 3235 3235 3235 3235 3234 3233 3233 3232 3231 3230 3229 3228 3227 3226 3225 3224 3222 3219
3149 3152 3155 3157 3159 3162 3164 3167 3169 3171 3173 3174 3176 3178 3179 3181 3183 3186 3188 3190 3191 3193 3195 3196 3198 3200 3201 3202 3204 3206 3207 3209 3211 3213 3214 3215 3216 3217 3217 3218 3219 3220 3221 3221 3222 3223 3224 3225 3226 3227 3229 3230 3231 3232 3232 3233 3233 3234 3234 3235 3235 3235 3235 3234 3234 3234 3234 3233 3232 3232 3232 3232 3231 3230 3230 3230 3228 3227 3225 3224 3223 3222 3222 3220 3218
3146 3150 3152 3154 3156 3159 3161 3164 3166 3168 3170 3172 3173 3175 3177 3178 3181 3183 3185 3187 3188 3190 3192 3193 3195 3197 3199 3200 3201 3204 3205 3206 3208 3210 3212 3213 3214 3214 3215 3215 3216 3217 3218 3219 3220 3221 3222 3223 3224 3225 3227 3228 3229 3230 3230 3231 3231 3231 3232 3232 3232 3233 3233 3233 3233 3232 3232 3231 3230 3229 3229 3229 3229 3229 3228 3228 3227 3225 3223 3221 3220 3219 3218 3217 3216
3143 3147 3149 3151 3153 3156 3159 3161 3163 3165 3167 3169 3171 3172 3174 3176 3178 3180 3182 3184 3186 3187 3189 3191 3192 3194 3196 3197 3199 3201 3202 3203 3205 3208 3209 3210 3211 3211 3212 3212 3213 3214 3216 3217 3218 3219 3220 3221 3222 3223 3224 3226 3227 3228 3229 3229 3229 3229 3229 3229 3229 3229 3230 3230 3230 3230 3230 3229 3228 3227 3226 3226 3226 3226 3226 3226 3225 3223 3221 3219 3218 3216 3214 3213 3213
3140 3144 3146 3148 3151 3153 3155 3158 3160 3162 3164 3166 3168 3170 3171 3173 3175 3177 3179 3181 3183 3184 3186 3188 3190 3191 3193 3195 3196 3198 3199 3201 3203 3205 3207 3208 3208 3209 3209 3210 3210 3212 3213 3215 3216 3217 3218 3219 3220 3221 3222 3223 3225 3226 3227 3227 3227 3227 3227 3226 3226 3226 3227 3227 3226 3225 3226 3226 3225 3225 3224 3224 3224 3224 3224 3223 3222 3221 3219 3218 3216 3214 3212 3210 3209
3138 3140 3143 3146 3148 3150 3152 3155 3157 3159 3161 3164 3166 3167 3169 3171 3172 3174 3176 3178 3180 3182 3184 3186 3187 3188 3190 3192 3193 3195 3196 3198 3200 3202 3203 3205 3206 3206 3207 3207 3208 3209 3211 3212 3213 3214 3215 3217 3218 3218 3219 3221 3222 3223 3224 3224 3224 3225 3225 3224 3223 3223 3224 3225 3224 3222 3221 3221 3221 3221 3221 3221 3221 3221 3221 3221 3220 3218 3217 3215 3214 3212 3210 3208 3206
3135 3138 3140 3143 3145 3147 3149 3152 3154 3156 3159 3161 3163 3165 3167 3168 3170 3172 3174 3176 3177 3179 3181 3182 3184 3185 3187 3189 3190 3192 3194 3195 3196 3198 3200 3202 3203 3203 3204 3204 3205 3206 3208 3209 3210 3211 3212 3214 3215 3216 3217 3218 3219 3220 3221 3221 3222 3222 3223 3222 3221 3221 3221 3221 3221 3220 3219 3218 3217 3217 3218 3218 3219 3218 3218 3218 3216 3215 3214 3212 3211 3209 3207 3206 3203
3133 3135 3137 3140 3142 3144 3146 3149 3152 3154 3156 3158 3160 3162 3164 3166 3168 3169 3171 3173 3175 3176 3178 3179 3181 3182 3184 3186 3187 3188 3190 3192 3193 3195 3197 3198 3200 3201 3201 3201 3202 3203 3205 3206 3207 3208 3209 3210 3211 3213 3214 3215 3216 3216 3217 3218 3218 3219 3219 3219 3218 3218 3218 3217 3217 3217 3217 3216 3215 3215 3215 3215 3215 3215 3214 3213 3212 3212 3210 3209 3207 3206 3204 3203 3201
3129 3131 3134 3136 3138 3141 3144 3147 3149 3151 3153 3155 3157 3159 3161 3163 3165 3167 3169 3170 3171 3173 3175 3176 3178 3179 3181 3183 3184 3185 3187 3189 3190 3191 3194 3195 3197 3197 3198 3198 3199 3200 3202 3203 3204 3205 3206 3207 3208 3209 3211 3212 3213 3213 3213 3214 3214 3214 3215 3215 3215 3215 3214 3214 3214 3214 3214 3213 3213 3213 3213 3213 3213 3212 3211 3210 3209 3208 3207 3206 3204 3202 3200 3198 3196
3126 3128 3131 3133 3136 3138 3141 3144 3146 3148 3150 3152 3154 3156 3158 3160 3162 3164 3166 3167 3168 3170 3172 3173 3175 3177 3178 3179 3181 3182 3184 3186 3187 3189 3191 3192 3193 3194 3195 3195 3197 3198 3199 3200 3201 3202 3203 3204 3205 3206 3207 3208 3209 3210 3210 3210 3210 3210 3211 3212 3212 3211 3211 3211 3211 3210 3210 3210 3210 3210 3210 3210 3210 3210 3209 3208 3207 3205 3204 3203 3201 3199 3197 3194 3192
3123 3125 3128 3130 3133 3135 3138 3141 3143 3145 3147 3148 3150 3153 3155 3157 3159 3161 3163 3164 3165 3167 3169 3171 3172 3174 3175 3177 3178 3180 3181 3183 3184 3186 3188 3189 3190 3191 3192 3193 3194 3195 3195 3196 3197 3199 3200 3200 3201 3202 3203 3204 3205 3206 3206 3206 3206 3206 3207 3208 3208 3208 3208 3208 3208 3207 3207 3207 3207 3207 3207 3207 3207 3206 3205 3204 3203 3202 3201 3200 3199 3197 3194 3192 3189
3119 3122 3125 3127 3129 3132 3135 3138 3141 3142 3144 3146 3148 3150 3152 3154 3156 3158 3160 3161 3163 3164 3166 3168 3170 3171 3173 3174 3176 3177 3179 3180 3182 3183 3184 3186 3187 3188 3190 3190 3191 3191 3192 3193 3194 3195 3196 3197 3197 3198 3199 3200 3201 3202 3203 3203 3202 3202 3203 3203 3204 3204 3204 3204 3204 3204 3204 3204 3204 3204 3204 3204 3203 3202 3201 3201 3199 3198 3198 3197 3195 3194 3191 3189 3186
3115 3118 3121 3124 3126 3129 3132 3135 3138 3139 3141 3143 3145 3147 3149 3151 3153 3155 3157 3159 3160 3162 3164 3166 3167 3169 3170 3172 3173 3175 3176 3177 3179 3180 3182 3183 3185 3186 3187 3187 3188 3188 3189 3190 3191 3192 3192 3193 3194 3195 3196 3196 3197 3199 3199 3199 3198 3198 3199 3199 3200 3200 3200 3200 3200 3200 3200 3201 3201 3201 3201 3200 3199 3198 3198 3197 3196 3194 3194 3193 3191 3190 3188 3185 3183
3112 3115 3118 3120 3123 3126 3129 3132 3135 3137 3138 3140 3142 3144 3146 3148 3150 3152 3154 3156 3158 3159 3161 3163 3164 3166 3168 3169 3171 3172 3173 3174 3175 3177 3178 3180 3181 3182 3183 3184 3185 3185 3185 3186 3188 3188 3189 3190 3191 3191 3192 3193 3194 3194 3195 3195 3195 3195 3195 3195 3196 3196 3196 3196 3196 3196 3197 3197 3197 3197 3197 3196 3194 3194 3194 3194 3192 3190 3189 3188 3187 3185 3184 3182 3180
3108 3111 3114 3117 3120 3123 3126 3129 3131 3134 3135 3137 3139 3141 3143 3145 3147 3149 3151 3153 3155 3157 3159 3160 3162 3163 3165 3167 3168 3169 3170 3171 3172 3173 3174 3175 3176 3178 3179 3180 3181 3181 3182 3183 3184 3185 3186 3187 3187 3187 3188 3189 3189 3190 3190 3190 3191 3191 3191 3191 3192 3192 3192 3192 3192 3193 3193 3193 3193 3193 3192 3191 3190 3190 3190 3189 3187 3186 3185 3184 3182 3181 3179 3177 3176
3104 3107 3110 3113 3116 3119 3122 3126 3128 3130 3132 3134 3136 3138 3140 3142 3144 3146 3148 3150 3152 3154 3156 3157 3159 3160 3162 3163 3165 3166 3167 3168 3168 3169 3170 3170 3172 3173 3174 3175 3176 3177 3178 3179 3180 3181 3182 3182 3183 3183 3183 3184 3185 3185 3186 3186 3186 3187 3187 3187 3187 3187 3187 3188 3188 3189 3189 3189 3188 3188 3188 3187 3186 3185 3185 3184 3182 3182 3181 3180 3178 3177 3174 3173 3172
3101 3104 3107 3109 3112 3116 3119 3122 3125 3127 3129 3130 3132 3134 3137 3139 3141 3143 3145 3147 3149 3151 3153 3154 3156 3157 3159 3160 3161 3162 3163 3163 3164 3165 3165 3166 3167 3168 3169 3170 3171 3172 3173 3174 3175 3176 3176 3177 3178 3179 3180 3180 3180 3181 3182 3182 3182 3182 3182 3183 3183 3183 3183 3183 3184 3184 3184 3184 3183 3183 3182 3182 3181 3181 3180 3179 3178 3177 3176 3175 3174 3172 3170 3169 3167
3097 3100 3103 3106 3109 3112 3116 3118 3121 3122 3124 3126 3129 3132 3134 3136 3138 3140 3142 3144 3146 3148 3149 3151 3153 3154 3156 3156 3157 3158 3159 3160 3160 3161 3161 3162 3163 3163 3165 3167 3167 3168 3169 3171 3171 3172 3172 3173 3174 3175 3176 3176 3176 3176 3177 3177 3176 3176 3177 3177 3178 3178 3178 3178 3179 3178 3178 3178 3178 3178 3177 3177 3177 3176 3176 3175 3174 3173 3172 3171 3170 3168 3167 3165 3164
3094 3097 3099 3102 3105 3109 3112 3114 3116 3119 3121 3123 3126 3129 3131 3133 3135 3137 3139 3141 3143 3145 3146 3148 3149 3151 3152 3152 3153 3154 3156 3157 3158 3158 3159 3159 3160 3160 3162 3163 3165 3165 3166 3167 3168 3168 3169 3169 3170 3171 3171 3172 3172 3172 3172 3171 3171 3171 3171 3172 3172 3172 3172 3172 3173 3173 3173 3173 3173 3173 3173 3173 3172 3172 3171 3171 3170 3168 3167 3166 3166 3165 3163 3162 3160
3090 3093 3096 3099 3102 3105 3108 3110 3113 3116 3118 3121 3124 3126 3128 3130 3132 3134 3136 3138 3140 3141 3143 3144 3146 3147 3148 3149 3150 3151 3153 3154 3155 3156 3156 3157 3158 3158 3159 3160 3162 3163 3164 3164 3165 3165 3166 3166 3167 3167 3167 3167 3167 3167 3167 3166 3166 3167 3167 3166 3166 3167 3167 3167 3167 3168 3168 3168 3168 3168 3168 3168 3168 3167 3167 3167 3165 3164 3163 3162 3162 3161 3160 3158 3157
3088 3091 3093 3095 3098 3101 3104 3107 3111 3113 3115 3118 3121 3123 3125 3127 3129 3131 3133 3135 3136 3138 3140 3141 3142 3144 3144 3145 3146 3148 3150 3151 3152 3153 3154 3155 3156 3157 3157 3158 3160 3161 3162 3162 3162 3163 3163 3163 3164 3163 3163 3163 3164 3164 3163 3162 3162 3163 3162 3162 3162 3163 3163 3163 3163 3163 3163 3163 3163 3163 3163 3163 3163 3163 3163 3162 3161 3160 3159 3158 3157 3157 3156 3154 3153
3084 3086 3089 3092 3095 3099 3101 3104 3107 3109 3112 3115 3118 3120 3122 3124 3126 3127 3129 3131 3133 3135 3137 3138 3139 3140 3141 3142 3143 3145 3146 3147 3149 3150 3151 3152 3153 3154 3155 3156 3157 3158 3159 3159 3160 3160 3160 3160 3159 3159 3159 3159 3160 3160 3159 3159 3159 3159 3159 3158 3158 3158 3159 3159 3159 3158 3158 3159 3159 3159 3159 3159 3159 3158 3158 3157 3157 3156 3155 3154 3154 3153 3151 3150 3149
3078 3081 3085 3088 3091 3095 3098 3100 3103 3106 3108 3111 3114 3116 3118 3120 3122 3124 3126 3128 3130 3132 3134 3135 3137 3138 3138 3139 3140 3141 3143 3144 3145 3146 3147 3148 3149 3150 3151 3152 3153 3155 3156 3156 3156 3156 3156 3156 3155 3155 3155 3155 3156 3156 3155 3155 3155 3154 3154 3154 3154 3154 3154 3155 3155 3154 3154 3154 3154 3154 3154 3155 3154 3154 3154 3153 3153 3152 3151 3151 3150 3148 3147 3146 3145
3076 3079 3082 3085 3086 3088 3091 3095 3098 3102 3105 3108 3110 3112 3114 3117 3119 3121 3123 3125 3126 3128 3130 3132 3134 3135 3136 3136 3137 3138 3140 3141 3141 3143 3143 3144 3145 3145 3146 3147 3149 3150 3151 3151 3151 3152 3151 3151 3151 3151 3151 3151 3151 3151 3151 3151 3151 3150 3150 3150 3150 3150 3151 3151 3150 3150 3150 3150 3150 3150 3151 3151 3150 3150 3150 3150 3149 3148 3148 3147 3146 3144 3143 3142 3141
3073 3076 3079 3082 3084 3085 3086 3089 3093 3097 3101 3104 3107 3109 3111 3113 3115 3117 3119 3121 3123 3125 3127 3129 3130 3131 3132 3133 3134 3135 3136 3137 3138 3139 3140 3140 3141 3141 3141 3142 3144 3145 3146 3146 3146 3147 3147 3147 3147 3147 3147 3146 3147 3147 3147 3147 3147 3146 3146 3146 3146 3146 3146 3147 3147 3147 3147 3147 3147 3148 3148 3148 3147 3146 3146 3146 3145 3144 3143 3142 3141 3140 3139 3138 3137
3071 3074 3076 3079 3083 3085 3086 3088 3091 3095 3098 3101 3104 3106 3108 3110 3112 3113 3115 3118 3120 3122 3123 3124 3125 3126 3128 3129 3130 3131 3132 3133 3134 3134 3135 3136 3136 3136 3137 3138 3139 3140 3140 3141 3141 3142 3142 3142 3142 3142 3142 3142 3142 3143 3143 3143 3143 3142 3143 3143 3142 3142 3142 3143 3143 3144 3144 3144 3144 3144 3145 3144 3143 3142 3142 3142 3141 3140 3139 3138 3137 3136 3135 3134 3133
3069 3072 3075 3077 3081 3085 3087 3088 3089 3092 3095 3098 3100 3102 3104 3106 3108 3110 3112 3114 3115 3117 3118 3119 3121 3122 3124 3125 3126 3127 3128 3129 3129 3130 3130 3131 3131 3132 3133 3133 3134 3135 3135 3136 3137 3138 3138 3138 3138 3138 3137 3137 3138 3138 3139 3139 3139 3138 3138 3138 3138 3138 3138 3138 3139 3140 3140 3140 3140 3140 3140 3139 3139 3138 3138 3137 3137 3136 3135 3133 3133 3132 3131 3130 3129
3066 3069 3072 3076 3080 3083 3085 3086 3087 3089 3092 3094 3096 3098 3101 3103 3105 3107 3109 3110 3110 3112 3114 3115 3116 3118 3119 3120 3122 3123 3123 3124 3124 3125 3126 3126 3127 3127 3128 3128 3129 3130 3131 3131 3132 3133 3133 3133 3133 3133 3133 3133 3133 3134 3134 3134 3134 3134 3134 3134 3134 3134 3134 3134 3135 3135 3136 3135 3135 3135 3135 3135 3134 3134 3133 3132 3132 3132 3131 3129 3129 3128 3127 3126 3125
3061 3064 3067 3071 3076 3080 3082 3084 3086 3088 3090 3092 3094 3096 3099 3100 3101 3103 3104 3105 3106 3108 3109 3110 3112 3113 3114 3116 3117 3117 3118 3118 3120 3121 3122 3122 3122 3123 3123 3124 3125 3125 3126 3127 3127 3128 3128 3129 3129 3129 3129 3129 3129 3130 3130 3130 3129 3130 3130 3130 3130 3130 3130 3130 3130 3130 3131 3131 3130 3130 3131 3130 3130 3129 3129 3128 3128 3127 3127 3126 3125 3124 3123 3122 3122
3058 3061 3064 3068 3073 3076 3079 3081 3083 3086 3088 3090 3092 3093 3095 3096 3097 3099 3100 3101 3103 3104 3105 3107 3108 3109 3110 3111 3112 3112 3113 3114 3116 3117 3117 3117 3118 3118 3119 3120 3120 3121 3122 3122 3123 3123 3124 3124 3124 3125 3125 3126 3126 3126 3126 3126 3126 3126 3126 3126 3126 3127 3127 3127 3126 3126 3126 3127 3126 3126 3126 3126 3125 3125 3125 3124 3124 3123 3123 3122 3121 3120 3119 3118 3117
3056 3058 3061 3065 3069 3072 3074 3077 3080 3082 3084 3086 3087 3089 3091 3092 3093 3095 3096 3098 3099 3101 3102 3103 3104 3104 3105 3106 3107 3108 3109 3111 3111 3112 3113 3113 3114 3114 3115 3115 3116 3117 3118 3118 3119 3119 3120 3120 3120 3121 3121 3121 3122 3122 3122 3122 3122 3122 3123 3123 3123 3123 3123 3123 3123 3123 3123 3123 3122 3122 3122 3122 3121 3121 3121 3120 3120 3120 3119 3118 3117 3116 3115 3114 3113
3054 3054 3056 3060 3064 3068 3070 3073 3076 3078 3080 3082 3084 3085 3087 3088 3090 3092 3093 3095 3096 3097 3098 3099 3100 3101 3102 3102 3104 3105 3106 3107 3107 3108 3109 3110 3110 3110 3111 3112 3112 3113 3114 3114 3115 3115 3116 3116 3116 3116 3117 3117 3117 3117 3118 3118 3119 3119 3119 3119 3120 3120 3119 3119 3119 3119 3119 3119 3118 3118 3118 3118 3117 3117 3116 3115 3115 3115 3115 3114 3113 3111 3110 3110 3109
3054 3054 3055 3058 3062 3065 3068 3070 3073 3074 3076 3078 3080 3081 3083 3085 3087 3089 3090 3091 3093 3094 3095 3096 3097 3098 3098 3099 3100 3101 3102 3103 3104 3105 3106 3106 3107 3107 3108 3108 3109 3109 3110 3111 3111 3112 3112 3112 3113 3113 3113 3114 3114 3114 3115 3115 3115 3115 3115 3115 3115 3115 3115 3115 3115 3115 3115 3115 3115 3114 3114 3113 3113 3112 3111 3110 3110 3110 3109 3109 3108 3106 3106 3105 3105
3052 3052 3054 3056 3059 3062 3066 3069 3071 3072 3073 3074 3076 3078 3080 3082 3084 3086 3087 3088 3089 3091 3092 3093 3094 3095 3095 3096 3097 3098 3099 3100 3101 3102 3102 3103 3103 3104 3104 3105 3105 3106 3107 3107 3108 3108 3108 3109 3109 3109 3110 3110 3110 3110 3111 3111 3111 3111 3111 3111 3112 3112 3111 3112 3112 3112 3112 3111 3111 3110 3110 3109 3109 3108 3106 3105 3105 3104 3104 3104 3103 3102 3101 3101 3101
3049 3050 3052 3054 3056 3060 3064 3067 3069 3070 3070 3071 3073 3075 3077 3079 3081 3083 3084 3085 3086 3087 3089 3090 3091 3092 3092 3093 3094 3095 3096 3096 3097 3098 3099 3099 3100 3101 3101 3102 3102 3102 3103 3103 3104 3104 3104 3105 3105 3105 3106 3106 3106 3107 3107 3108 3108 3108 3108 3108 3108 3108 3108 3108 3108 3108 3108 3107 3107 3106 3106 3105 3104 3103 3102 3101 3100 3100 3100 3100 3099 3098 3097 3097 3096
3048 3049 3051 3053 3055 3058 3062 3064 3066 3067 3068 3069 3071 3073 3075 3077 3078 3079 3080 3082 3083 3084 3085 3086 3087 3088 3089 3090 3091 3092 3092 3093 3093 3094 3095 3096 3096 3097 3098 3098 3098 3099 3099 3099 3100 3100 3101 3101 3102 3102 3102 3102 3102 3103 3104 3104 3104 3104 3104 3104 3104 3104 3104 3104 3104 3103 3103 3103 3102 3102 3101 3100 3099 3099 3098 3097 3096 3096 3095 3095 3095 3094 3093 3092 3092
3048 3049 3051 3053 3055 3057 3059 3060 3062 3064 3065 3067 3069 3071 3073 3074 3075 3076 3077 3078 3080 3081 3082 3083 3084 3085 3086 3086 3087 3087 3088 3088 3089 3090 3091 3092 3092 3093 3094 3094 3095 3095 3095 3096 3096 3097 3097 3098 3098 3098 3098 3099 3099 3100 3100 3100 3100 3100 3100 3100 3100 3100 3100 3100 3099 3099 3099 3098 3097 3096 3096 3095 3095 3094 3093 3092 3092 3091 3091 3090 3090 3089 3088 3087 3086
3048 3050 3051 3052 3054 3056 3057 3058 3059 3061 3063 3065 3067 3069 3070 3072 3073 3074 3075 3075 3076 3077 3078 3079 3080 3081 3082 3082 3083 3083 3084 3084 3085 3086 3087 3087 3088 3089 3090 3090 3091 3091 3092 3092 3093 3093 3094 3094 3094 3095 3095 3095 3096 3096 3096 3096 3096 3096 3096 3096 3095 3095 3095 3095 3095 3094 3094 3093 3092 3091 3091 3090 3090 3089 3088 3087 3086 3086 3085 3084 3084 3083 3083 3082 3081
3047 3049 3050 3051 3053 3054 3056 3057 3058 3059 3061 3063 3064 3066 3068 3069 3070 3071 3072 3073 3073 3074 3075 3075 3076 3077 3078 3078 3079 3080 3080 3081 3081 3082 3082 3083 3084 3085 3085 3086 3087 3087 3088 3088 3089 3089 3090 3090 3090 3091 3091 3092 3092 3092 3092 3092 3091 3091 3091 3091 3091 3091 3091 3090 3090 3089 3088 3087 3087 3086 3085 3085 3084 3083 3082 3082 3081 3080 3079 3079 3078 3078 3077 3077 3076